Weather in Krasnaya Bashkiriya

Russia / Republic of Bashkortostan     53°23′08″N   58°50′35″E
temp.,
°C
wind,
m/s
gust,
m/s
humid.,
%
clouds,
%
prec.,
mm/h
press.,
hPa
HPBL,
m
28 january, thu
thu2823:00−8sw238779 0.0 103332
02:00−9ssw348637 0.0 103345
05:00−10ssw338621 0.0 103238
08:00−11s458773 0.0 103265
11:00−10ssw348887 0.0 103186
14:00−8s4790100 0.0 1029181
17:00−11s3593100 0.0 102977
20:00−13ssw338799 0.0 102934
29 january, fri
fri2923:00−13ssw3482100 0.0 102841
02:00−13ssw3487100 0.0 102848
05:00−14ssw3487100 0.0 102738
08:00−14ssw3384100 0.0 102630
11:00−13s2388100 0.0 102556
14:00−11s3491100 0.0 1024141
17:00−14s2295100 0.0 102320
20:00−16s1197100 0.0 102320
30 january, sat
sat3023:00−15sse0197100 0.0 102221
02:00−15e1198100 0.0 102020
05:00−13sse1197100 0.1 101925
08:00−12ne1196100 0.3 101750
11:00−10s0195100 1.2 1016116
14:00−7s2493100 0.6 1015348
17:00−8ssw2396100 0.6 101662
20:00−10sw229240 0.0 101722
31 january, sun
sun3123:00−9wsw129132 0.0 101821
02:00−9wsw229061 0.0 101921
05:00−7sw229179 0.0 101925
08:00−7w2288100 0.0 102021
11:00−6wsw2290100 0.0 102035
14:00−3w1291100 0.0 1021104
17:00−5ssw229168 0.0 102121
20:00−7w119167 0.0 102221
1 february, mon
mon123:00−8sw119448 0.0 102221
02:00−9s229833 0.0 102221
05:00−10s239861 0.0 102238
08:00−12ssw349574 0.0 102145
11:00−10ssw359174 0.0 1020109
14:00−5s5897100 0.1 1020269
17:00−1sw4891100 0.3 1020310
20:00−5wsw41087100 0.0 1022193